CW2931 Weather Reports


time (UTC)temp
F
wind
direction
speed
knots
gust
knots
rain 1hr
in
rain 24hr
in
rain mn
in
humidity
%
barometer
mb
20260506143604 56 346 0.0 0.0 0.00 0.03 0.00 52 1011.0
20260506143104 56 246 0.0 0.0 0.00 0.03 0.00 53 1010.9
20260506141604 55 268 0.0 0.0 0.00 0.03 0.00 56 1011.0
20260506141104 55 347 0.0 0.0 0.00 0.03 0.00 56 1010.9
20260506140104 55 307 0.0 0.0 0.00 0.03 0.00 59 1010.6
20260506135604 55 317 0.0 0.0 0.00 0.03 0.00 59 1010.6
20260506135104 55 318 0.0 0.0 0.00 0.03 0.00 59 1010.7
20260506134604 55 351 0.0 0.0 0.00 0.03 0.00 61 1010.6
20260506134103 55 271 0.0 0.0 0.00 0.03 0.00 62 1010.6
20260506133604 54 275 0.0 0.0 0.00 0.03 0.00 64 1010.5
20260506132604 54 323 0.0 0.0 0.00 0.03 0.00 67 1010.4
20260506131104 53 294 0.0 0.0 0.00 0.03 0.00 71 1010.3
20260506130605 52 294 0.0 0.0 0.00 0.03 0.00 72 1010.0
20260506130104 52 311 0.0 0.0 0.00 0.03 0.00 74 1009.9
20260506125604 51 309 0.0 0.0 0.00 0.03 0.00 75 1010.0
20260506125104 50 308 0.0 0.0 0.00 0.03 0.00 76 1010.1
20260506124104 49 301 0.0 0.0 0.00 0.03 0.00 77 1009.9
20260506123603 49 267 0.0 0.0 0.00 0.03 0.00 78 1009.9
20260506123104 48 283 0.0 0.0 0.00 0.03 0.00 79 1009.8
20260506122604 48 291 0.0 0.0 0.00 0.03 0.00 79 1009.8
20260506122104 48 255 0.0 0.0 0.00 0.03 0.00 80 1009.6
20260506121604 47 258 0.0 0.0 0.00 0.03 0.00 80 1009.6
20260506121104 47 257 0.0 0.0 0.00 0.03 0.00 80 1009.7
20260506120104 47 255 0.0 0.0 0.00 0.03 0.00 81 1009.5
20260506115103 47 252 0.0 0.0 0.00 0.03 0.00 82 1009.4
20260506114604 47 247 0.0 0.0 0.00 0.03 0.00 83 1009.4
20260506114104 47 245 0.0 0.0 0.00 0.03 0.00 83 1009.3
20260506113103 47 251 0.0 0.0 0.00 0.03 0.00 83 1009.2
20260506112604 47 255 0.0 0.0 0.00 0.03 0.00 84 1009.1
20260506112104 47 256 0.0 0.0 0.00 0.03 0.00 84 1009.0
20260506110604 47 257 0.0 0.0 0.00 0.03 0.00 85 1008.8
20260506110104 47 257 0.0 0.0 0.00 0.03 0.00 85 1008.8
20260506105604 47 257 0.0 0.0 0.00 0.03 0.00 85 1008.8
20260506105104 47 257 0.0 0.0 0.00 0.03 0.00 85 1008.7
20260506104604 47 252 0.0 0.0 0.00 0.03 0.00 85 1008.7
20260506104104 47 252 0.0 0.0 0.00 0.03 0.00 85 1008.6
20260506103106 47 252 0.0 0.0 0.00 0.03 0.00 85 1008.3
20260506102604 47 252 0.0 0.0 0.00 0.03 0.00 85 1008.2
20260506102104 47 252 0.0 0.0 0.00 0.03 0.00 85 1008.2
20260506101104 47 252 0.0 0.0 0.00 0.03 0.00 85 1007.9
20260506100604 47 252 0.0 0.0 0.00 0.03 0.00 85 1007.8
20260506100103 47 252 0.0 0.0 0.00 0.03 0.00 85 1007.9
20260506095104 47 252 0.0 0.0 0.00 0.03 0.00 85 1008.2
20260506094104 47 252 0.0 0.0 0.00 0.03 0.00 85 1008.0
20260506093604 47 252 0.0 0.0 0.00 0.03 0.00 85 1007.8
20260506092603 47 252 0.0 0.0 0.00 0.03 0.00 85 1008.0
20260506092104 47 252 0.0 0.0 0.00 0.03 0.00 86 1007.9
20260506091604 47 252 0.0 0.0 0.00 0.03 0.00 86 1007.9
20260506091104 47 252 0.0 0.0 0.00 0.03 0.00 86 1007.7
20260506090604 48 252 0.0 0.0 0.00 0.03 0.00 86 1007.7
20260506085605 48 252 0.0 0.0 0.00 0.03 0.00 86 1007.6
20260506085104 48 252 0.0 0.0 0.00 0.03 0.00 86 1007.7
20260506084604 48 252 0.0 0.0 0.00 0.03 0.00 86 1007.8
20260506084104 48 252 0.0 0.0 0.00 0.03 0.00 86 1007.8
20260506083604 48 252 0.0 0.0 0.00 0.03 0.00 86 1007.9
20260506083103 48 252 0.0 0.0 0.00 0.03 0.00 86 1007.7
20260506082604 48 252 0.0 0.0 0.00 0.03 0.00 86 1007.6
20260506082103 48 252 0.0 0.0 0.00 0.03 0.00 86 1007.5
20260506081603 48 252 0.0 0.0 0.00 0.03 0.00 86 1007.6
20260506080604 48 252 0.0 0.0 0.00 0.03 0.00 86 1007.4
20260506080104 48 252 0.0 0.0 0.00 0.03 0.00 86 1007.5
20260506073104 48 252 0.0 0.0 0.00 0.03 0.00 86 1007.7
20260506072603 48 252 0.0 0.0 0.00 0.03 0.00 86 1007.7
20260506072103 48 252 0.0 0.0 0.00 0.03 0.00 86 1007.6
20260506071603 48 252 0.0 0.0 0.00 0.03 0.00 86 1007.4
20260506071104 48 251 0.0 0.0 0.00 0.03 0.00 86 1007.6
20260506070603 48 251 0.0 0.0 0.00 0.03 0.00 86 1007.6
20260506070104 48 251 0.0 0.0 0.00 0.03 0.00 86 1007.7
20260506062104 48 251 0.0 0.0 0.00 0.03 0.00 86 1008.2
20260506061604 48 251 0.0 0.0 0.00 0.03 0.00 86 1008.1
20260506061104 48 251 0.0 0.0 0.00 0.04 0.00 86 1007.9
20260506060604 49 251 0.0 0.0 0.00 0.04 0.00 86 1008.1
20260506051105 49 239 0.0 0.0 0.00 0.05 0.00 86 1008.1
20260506050605 49 237 0.0 0.0 0.00 0.05 0.00 86 1008.1
20260506045105 49 235 0.0 0.0 0.00 0.05 0.00 85 1008.0
20260506044605 49 235 0.0 0.0 0.00 0.05 0.00 85 1008.1
20260506043605 49 252 0.0 0.0 0.00 0.06 0.00 85 1008.0
20260506043105 49 252 0.0 0.0 0.00 0.06 0.00 85 1008.0
20260506042605 49 252 0.0 0.0 0.00 0.06 0.00 84 1008.1
20260506042106 49 252 0.0 0.0 0.01 0.06 0.00 84 1008.1
20260506041606 49 252 0.0 0.0 0.01 0.06 0.00 84 1008.1
20260506041105 49 253 0.0 0.0 0.01 0.06 0.00 83 1008.0
20260506040606 49 253 0.0 0.0 0.01 0.06 0.00 83 1007.7
20260506040105 49 253 0.0 0.0 0.01 0.06 0.00 82 1007.6
20260506035605 49 253 0.0 0.0 0.01 0.06 0.06 81 1007.6
20260506035105 49 252 0.0 0.0 0.01 0.06 0.06 81 1007.6
20260506034605 49 252 0.0 0.0 0.01 0.06 0.06 81 1007.5
20260506034105 49 252 0.0 0.0 0.01 0.06 0.06 81 1007.6
20260506033606 49 252 0.0 0.0 0.01 0.06 0.06 81 1007.6
20260506033106 49 252 0.0 0.0 0.01 0.06 0.06 80 1007.6
20260506032105 49 252 0.0 0.0 0.01 0.05 0.05 80 1007.9
20260506031606 50 252 0.0 0.0 0.01 0.05 0.05 80 1008.0
20260506031105 50 252 0.0 0.0 0.01 0.05 0.05 79 1008.0
20260506030105 50 252 0.0 0.0 0.01 0.05 0.05 78 1008.0
20260506025105 51 252 0.0 0.0 0.02 0.05 0.05 77 1008.0
20260506024105 51 253 0.0 0.0 0.02 0.05 0.05 74 1008.1
20260506023605 51 253 0.0 0.0 0.02 0.05 0.05 73 1008.0
20260506022605 52 253 0.0 0.0 0.01 0.04 0.04 70 1008.0
20260506022105 52 252 0.0 0.0 0.01 0.04 0.04 70 1008.0
20260506021605 52 252 0.0 0.0 0.01 0.04 0.04 68 1008.0
20260506021106 52 252 0.0 0.0 0.01 0.04 0.04 67 1007.9
20260506015605 53 252 0.0 0.0 0.01 0.04 0.04 64 1007.6
20260506014605 53 248 0.0 0.0 0.00 0.03 0.03 63 1007.5
20260506014105 54 254 0.0 0.0 0.00 0.03 0.03 63 1007.4
20260506013606 54 254 0.0 0.0 0.00 0.03 0.03 62 1007.4
20260506013105 54 255 0.0 0.0 0.00 0.03 0.03 61 1007.4
20260506012105 54 256 0.0 0.0 0.00 0.03 0.03 60 1007.1
20260506011606 54 256 0.0 0.0 0.00 0.03 0.03 59 1007.0
20260506011106 54 256 0.0 0.0 0.00 0.03 0.03 57 1007.0
20260506010605 54 256 0.0 0.0 0.00 0.03 0.03 56 1007.0
20260506010106 54 256 0.0 0.0 0.00 0.03 0.03 55 1007.0
20260506005605 55 252 0.0 0.0 0.00 0.03 0.03 54 1007.0
20260506005105 55 254 0.0 0.0 0.00 0.03 0.03 54 1007.1
20260506004605 55 250 0.0 0.0 0.00 0.04 0.03 54 1007.1
20260506004105 55 270 0.0 0.0 0.00 0.04 0.03 53 1007.2
20260506002105 55 265 0.0 0.0 0.00 0.04 0.03 51 1007.2
20260506000605 55 266 0.0 0.0 0.00 0.07 0.03 52 1007.0
20260506000106 55 264 0.0 0.0 0.00 0.08 0.03 52 1006.9
20260505235605 55 271 0.0 0.0 0.00 0.08 0.03 53 1006.7
20260505235106 55 276 0.0 0.0 0.00 0.08 0.03 53 1006.6
20260505234605 55 261 0.0 0.0 0.00 0.08 0.03 54 1006.4
20260505233605 55 267 0.0 0.0 0.00 0.09 0.03 57 1006.3
20260505231605 56 255 0.0 0.0 0.00 0.11 0.03 64 1006.3
20260505231105 56 207 0.0 0.0 0.00 0.11 0.03 64 1006.2
20260505230605 56 238 0.0 0.0 0.00 0.11 0.03 65 1006.3
20260505230106 56 237 0.0 0.0 0.00 0.11 0.03 65 1006.4
20260505225605 56 249 0.0 0.0 0.00 0.11 0.03 65 1006.3
20260505225105 56 250 0.0 0.0 0.00 0.11 0.03 65 1006.3
20260505224605 56 246 0.0 0.0 0.00 0.11 0.03 66 1006.3
20260505224105 56 231 0.0 0.0 0.00 0.11 0.03 66 1006.3
20260505223605 56 240 0.0 0.0 0.00 0.11 0.03 67 1006.3
20260505223105 56 249 0.0 0.0 0.00 0.11 0.03 67 1006.3
20260505222605 56 248 0.0 0.0 0.00 0.11 0.03 67 1006.3
20260505222105 56 248 0.0 0.0 0.00 0.11 0.03 67 1006.3
20260505220606 56 232 0.0 0.0 0.00 0.11 0.03 67 1006.4
20260505220105 56 240 0.0 0.0 0.00 0.11 0.03 66 1006.4
20260505215606 56 239 0.0 0.0 0.00 0.11 0.03 66 1006.4
20260505215105 56 239 0.0 0.0 0.00 0.11 0.03 66 1006.4
20260505214605 56 266 0.0 0.0 0.00 0.11 0.03 66 1006.4
20260505214105 56 301 0.0 0.0 0.00 0.11 0.03 66 1006.5
20260505213605 56 316 0.0 0.0 0.00 0.11 0.03 66 1006.4
20260505213106 56 269 0.0 0.0 0.00 0.11 0.03 66 1006.3
20260505212605 56 257 0.0 0.0 0.00 0.11 0.03 65 1006.3
20260505212105 56 280 0.0 0.0 0.00 0.11 0.03 65 1006.3
20260505211604 56 251 0.0 0.0 0.00 0.11 0.03 65 1006.3
20260505211105 56 240 0.0 0.0 0.00 0.11 0.03 65 1006.3
20260505210105 56 249 0.0 0.0 0.00 0.11 0.03 65 1006.3
20260505205105 56 267 0.0 0.0 0.00 0.11 0.03 65 1006.4
20260505204605 56 256 0.0 0.0 0.00 0.11 0.03 66 1006.3
20260505204105 56 248 0.0 0.0 0.00 0.11 0.03 67 1006.5
20260505203105 56 256 0.0 0.0 0.00 0.11 0.03 67 1006.7
20260505202605 56 258 0.0 0.0 0.00 0.11 0.03 67 1006.7
20260505202105 56 186 0.0 0.0 0.00 0.11 0.03 67 1006.7
20260505201105 56 227 0.0 0.0 0.00 0.11 0.03 67 1006.7
20260505200605 56 236 0.0 0.0 0.00 0.11 0.03 67 1006.7
20260505200105 56 257 0.0 0.0 0.00 0.11 0.03 67 1006.7
20260505195605 55 246 0.0 0.0 0.00 0.11 0.03 67 1006.7
20260505194605 55 255 0.0 0.0 0.00 0.11 0.03 68 1006.8
20260505193605 55 246 0.0 0.0 0.00 0.11 0.03 68 1006.7
20260505193105 56 191 0.0 0.0 0.00 0.11 0.03 69 1006.7
20260505192605 56 248 0.0 0.0 0.00 0.11 0.03 69 1006.7
20260505192105 56 228 0.0 0.0 0.00 0.11 0.03 68 1006.7
20260505191605 56 252 0.0 0.0 0.00 0.11 0.03 67 1006.9
20260505191105 56 253 0.0 0.0 0.00 0.11 0.03 65 1006.9
20260505190605 56 263 0.0 0.0 0.00 0.11 0.03 64 1007.0
20260505190105 56 265 0.0 0.0 0.00 0.11 0.03 64 1006.9
20260505185605 56 258 0.0 0.0 0.00 0.11 0.03 64 1006.9
20260505185105 56 236 0.0 0.0 0.00 0.11 0.03 63 1006.9
20260505184605 57 253 0.0 0.0 0.00 0.11 0.03 64 1006.8
20260505184105 57 251 0.0 0.0 0.00 0.11 0.03 66 1006.8
20260505183605 57 241 0.0 0.0 0.00 0.11 0.03 66 1006.7
20260505183105 56 245 0.0 0.0 0.00 0.11 0.03 67 1006.7
20260505182605 56 251 0.0 0.0 0.00 0.11 0.03 67 1006.5
20260505182105 57 233 0.0 0.0 0.00 0.11 0.03 68 1006.7
20260505181105 57 262 0.0 0.0 0.00 0.11 0.03 70 1006.6
20260505180605 56 302 0.0 0.0 0.00 0.11 0.03 71 1006.5
20260505180105 56 266 0.0 0.0 0.00 0.11 0.03 71 1006.5
20260505175605 57 252 0.0 0.0 0.00 0.11 0.03 72 1006.5
20260505175105 57 263 0.0 0.0 0.00 0.11 0.03 73 1006.3
20260505174605 56 252 0.0 0.0 0.00 0.11 0.03 72 1006.2
20260505174105 57 247 0.0 0.0 0.00 0.11 0.03 71 1006.2
20260505173105 57 309 0.0 0.0 0.00 0.11 0.03 69 1006.1
20260505172605 57 301 0.0 0.0 0.00 0.11 0.03 69 1006.2
20260505172105 57 322 0.0 0.0 0.00 0.11 0.03 68 1006.2
20260505171605 58 320 0.0 0.0 0.00 0.11 0.03 67 1006.1
20260505171105 58 292 0.0 0.0 0.00 0.11 0.03 65 1005.8
20260505170605 58 308 0.0 0.0 0.00 0.11 0.03 64 1005.8
20260505170105 58 312 0.0 0.0 0.00 0.11 0.03 62 1005.9
20260505165605 59 288 0.0 0.0 0.00 0.11 0.03 61 1005.9
20260505165105 59 297 0.0 0.0 0.00 0.11 0.03 60 1005.8
20260505164605 59 309 0.0 0.0 0.00 0.11 0.03 58 1005.9
20260505164104 60 294 0.0 0.0 0.00 0.11 0.03 56 1006.1
20260505163105 61 250 0.0 0.0 0.00 0.11 0.03 53 1006.0
20260505161105 62 276 0.0 0.0 0.00 0.11 0.03 53 1006.0
20260505160605 62 257 0.0 0.0 0.00 0.11 0.03 52 1005.7
20260505160104 62 257 0.0 0.0 0.00 0.11 0.03 51 1005.6
20260505153105 61 248 0.0 0.0 0.00 0.11 0.03 49 1005.0
20260505152605 61 252 0.0 0.0 0.00 0.11 0.03 50 1004.9
20260505152105 62 249 0.0 0.0 0.00 0.11 0.03 51 1005.0
20260505151605 62 262 0.0 0.0 0.00 0.11 0.03 52 1004.8
20260505150604 62 272 0.0 0.0 0.00 0.11 0.03 53 1004.9